Hourly Data Report for July 01, 2022

SANIRAJAK AIRPORT
NUNAVUT
Current Station Operator: NAVCAN

68°46'33.000" N
81°14'33.000" W
9.10 m
2402354
71293
YUX

Download Data

Hourly Data (July 2022)
Hourly Data Report for July 1, 2022
TIME
LST
Temp Definition
°C
Dew Point Definition
°C
Rel Hum Definition
%
Precip. Amount Definition
mm

Wind Dir Definition
10's deg

Wind Spd Definition
km/h
Visibility Definition
km
Stn Press Definition
kPa
Hmdx Definition


Wind Chill Definition


Weather Definition


00:00 4.0 3.9 99 0.0 22 9 16.1 101.18     LegendNANA
01:00 3.3 3.3 100 0.0 22 8 16.1 101.18     LegendNANA
02:00 LegendMM LegendMM LegendMM 0.0 24 8 16.1 LegendMM     LegendNANA
03:00 LegendMM LegendMM LegendMM 0.0 23 8 16.1 LegendMM     LegendNANA
04:00 LegendMM LegendMM LegendMM 0.0 23 9 16.1 LegendMM     LegendNANA
05:00 6.6 4.0 83 0.0 23 5 16.1 101.11     LegendNANA
06:00 8.2 5.4 83 0.0 16 5 16.1 101.10     LegendNANA
07:00 6.6 3.4 80 0.0 17 9 16.1 101.10     LegendNANA
08:00 9.3 3.8 68 0.0 20 9 16.1 101.09     LegendNANA
09:00 10.8 4.0 63 0.0 19 8 14.5 101.08     LegendNANA
10:00 10.0 2.9 61 0.0 14 11 14.5 101.08     LegendNANA
11:00 11.2 3.0 57 0.0 15 9 16.1 101.05     LegendNANA
12:00 9.8 3.2 63 0.0 16 13 14.5 101.05     LegendNANA
13:00 9.7 3.4 65 0.0 16 13 4.8 101.07     Haze
14:00 9.1 3.4 67 0.0 16 15 6.4 101.09     Haze
15:00 10.0 4.0 66 0.0 16 13 8.1 101.11     Haze
16:00 10.0 3.9 66 0.0 15 13 16.1 101.13     LegendNANA
17:00 11.0 3.8 61 0.0 16 11 16.1 101.14     LegendNANA
18:00 11.2 3.5 59 0.0 15 9 12.9 101.14     LegendNANA
19:00 11.7 3.0 55 0.0 16 4 16.1 101.17     LegendNANA
20:00 11.1 3.2 58 0.0 16 9 14.5 101.19     LegendNANA
21:00 9.1 2.7 64 0.0 15 8 16.1 101.21     LegendNANA
22:00 7.9 3.0 71 0.0 15 5 11.3 101.22     LegendNANA
23:00 5.4 3.6 88 0.0 25 9 16.1 101.23     LegendNANA

Notes on Data Quality.

Legend

  • E = Estimated
  • M = Missing
  • NA = Not Available*
  • [empty] = Indicates an unobserved value
Date modified: